Hourly Weather Roundup
Issued by NWS Central Illinois

Current Version | Previous Version | Text Only | Print | Product List | Glossary On
Versions: 1 2 3 4 5 6 7 8 9 10 11 12 13 14 15 16 17 18 19 20 21 22 23 24 25 26 27 28 29 30 31 32 33 34 35 36 37 38 39 40 41 42 43 44 45 46 47 48 49 50
824
NZUS43 KILX 261010
HWRILX

AREA WEATHER ROUNDUP
NATIONAL WEATHER SERVICE, LINCOLN IL
500 AM CDT FRI AUG 26 2016


CITY           SKY/WX    TMP DP  RH WIND       PRES   REMARKS
BLOOMINGTON    FAIR      68  67  96 N6        30.12S
CHAMPAIGN      FAIR      70  67  90 CALM      30.11R
DANVILLE       HVY RAIN  69  69  99 N3        30.08R VSB 3/4
DECATUR        FAIR      70  67  90 E5        30.09F
EFFINGHAM      FAIR      73  73 100 NW3       30.10R FOG
FLORA          FAIR      72  71  96 CALM      30.08R
GALESBURG      MOCLDY    66  65  96 CALM      30.14R
JACKSONVILLE   FAIR      71  68  90 E6        30.09F
LACON          FAIR      67  65  95 CALM      30.12R
LAWRENCEVILLE  FAIR      73  72  96 S3        30.07S
LITCHFIELD     FAIR      68  65  90 NE3       30.09R
$$


CITY           SKY/WX    TMP DP  RH WIND       PRES   REMARKS
LINCOLN        MOCLDY    69  69  99 CALM      30.10F
MACOMB         LGT RAIN  67  67  97 CALM      30.14R
MATTOON        FAIR      72  70  93 N6        30.09R
MT CARMEL AP   FAIR      70  68  95 SE3       30.07R
OLNEY-NOBLE AP FAIR      70  70 100 CALM      30.08R FOG
PARIS          FAIR      72  72 100 CALM      30.10R
PEORIA         LGT RAIN  69  68  96 NE3       30.12R
PONTIAC        FAIR      68  68 100 CALM      30.12F
RANTOUL        FAIR      70  69  96 E5        30.12F
ROBINSON       FAIR      68  68 100 CALM      30.08R FOG
SPRINGFIELD    MOCLDY    73  68  84 NE6       30.10R
TAYLORVILLE    FAIR      71  70  98 NE7       30.09S
$$

...REGIONAL REPORTS...


CITY           SKY/WX    TMP DP  RH WIND       PRES   REMARKS
CHICAGO O`HARE MOCLDY    68  61  78 NW9       30.11R
KANKAKEE       LGT RAIN  68  66  94 CALM      30.12S
MOLINE         MOCLDY    65  62  90 CALM      30.12S
MOUNT STERLING CLOUDY    67  66  97 N7        30.10S
MOUNT VERNON   FAIR      72  66  83 CALM      30.08R
PITTSFIELD     FAIR      70  69  97 NE6       30.10S
QUINCY         CLOUDY    69  69 100 NE9       30.10S
ROCKFORD       FAIR      64  61  90 N3        30.15R
$$


CITY           SKY/WX    TMP DP  RH WIND       PRES   REMARKS
BURLINGTON     CLOUDY    69  65  86 NE6       30.12R
CEDAR RAPIDS   FAIR      60  60 100 N7        30.14R
DES MOINES     CLOUDY    65  60  84 N7        30.14R
KIRKSVILLE     LGT RAIN  68  65  90 CALM      30.15R
OTTUMWA        MOCLDY    64  61  90 CALM      30.13S
ST LOUIS       MOCLDY    76  69  79 E3        30.07S
$$


CITY           SKY/WX    TMP DP  RH WIND       PRES   REMARKS
TERRE HAUTE    FAIR      71  69  93 CALM      30.08R FOG
EVANSVILLE     FAIR      72  70  93 CALM      30.08R
INDIANAPOLIS   FAIR      75  72  90 E6        30.08S
LAFAYETTE      MOCLDY    71  70  96 NE5       30.09S
MADISON        FAIR      59  58  96 CALM      30.14R
MILWAUKEE      FAIR      67  59  75 NW6       30.12R
$$






USA.gov is the U.S. government's official web portal to all federal, state and local government web resources and services.